Year,Month,Day,Hour,Minute,Value (Times are PST for temperature in C)
2009,08,11,00,00,12.80
2009,08,11,00,01,12.80
2009,08,11,00,02,12.80
2009,08,11,00,03,12.80
2009,08,11,00,04,12.80
2009,08,11,00,05,12.90
2009,08,11,00,06,12.90
2009,08,11,00,07,12.90
2009,08,11,00,08,12.90
2009,08,11,00,09,12.90
2009,08,11,00,10,12.90
2009,08,11,00,11,13.00
2009,08,11,00,12,13.00
2009,08,11,00,13,13.00
2009,08,11,00,14,13.00
2009,08,11,00,15,13.00
2009,08,11,00,16,13.10
2009,08,11,00,17,13.10
2009,08,11,00,18,13.10
2009,08,11,00,19,13.10
2009,08,11,00,20,13.20
2009,08,11,00,21,13.20
2009,08,11,00,22,13.20
2009,08,11,00,23,13.30
2009,08,11,00,24,13.30
2009,08,11,00,25,13.30
2009,08,11,00,26,13.30
2009,08,11,00,27,13.30
2009,08,11,00,28,13.30
2009,08,11,00,29,13.30
2009,08,11,00,30,13.40
2009,08,11,00,31,13.40
2009,08,11,00,32,13.50
2009,08,11,00,33,13.50
2009,08,11,00,34,13.50
2009,08,11,00,35,13.60
2009,08,11,00,36,13.60
2009,08,11,00,37,13.70
2009,08,11,00,38,13.70
2009,08,11,00,39,13.70
2009,08,11,00,40,13.70
2009,08,11,00,41,13.70
2009,08,11,00,42,13.70
2009,08,11,00,43,13.70
2009,08,11,00,44,13.80
2009,08,11,00,45,13.80
2009,08,11,00,46,13.80
2009,08,11,00,47,13.70
2009,08,11,00,48,13.70
2009,08,11,00,49,13.70
2009,08,11,00,50,13.70
2009,08,11,00,51,13.70
2009,08,11,00,52,13.70
2009,08,11,00,53,13.70
2009,08,11,00,54,13.70
2009,08,11,00,55,13.70
2009,08,11,00,56,13.70
2009,08,11,00,57,13.70
2009,08,11,00,58,13.70
2009,08,11,00,59,13.70
2009,08,11,01,00,13.70
2009,08,11,01,01,13.70
2009,08,11,01,02,13.70
2009,08,11,01,03,13.70
2009,08,11,01,04,13.70
2009,08,11,01,05,13.70
2009,08,11,01,06,13.70
2009,08,11,01,07,13.70
2009,08,11,01,08,13.70
2009,08,11,01,09,13.70
2009,08,11,01,10,13.70
2009,08,11,01,11,13.70
2009,08,11,01,12,13.70
2009,08,11,01,13,13.70
2009,08,11,01,14,13.70
2009,08,11,01,15,13.70
2009,08,11,01,16,13.70
2009,08,11,01,17,13.70
2009,08,11,01,18,13.70
2009,08,11,01,19,13.70
2009,08,11,01,20,13.70
2009,08,11,01,21,13.70
2009,08,11,01,22,13.70
2009,08,11,01,23,13.70
2009,08,11,01,24,13.70
2009,08,11,01,25,13.70
2009,08,11,01,26,13.70
2009,08,11,01,27,13.70
2009,08,11,01,28,13.70
2009,08,11,01,29,13.70
2009,08,11,01,30,13.70
2009,08,11,01,31,13.70
2009,08,11,01,32,13.70
2009,08,11,01,33,13.70
2009,08,11,01,34,13.70
2009,08,11,01,35,13.70
2009,08,11,01,36,13.70
2009,08,11,01,37,13.70
2009,08,11,01,38,13.70
2009,08,11,01,39,13.70
2009,08,11,01,40,13.70
2009,08,11,01,41,13.70
2009,08,11,01,42,13.70
2009,08,11,01,43,13.70
2009,08,11,01,44,13.70
2009,08,11,01,45,13.70
2009,08,11,01,46,13.70
2009,08,11,01,47,13.70
2009,08,11,01,48,13.70
2009,08,11,01,49,13.70
2009,08,11,01,50,13.70
2009,08,11,01,51,13.70
2009,08,11,01,52,13.70
2009,08,11,01,53,13.70
2009,08,11,01,54,13.70
2009,08,11,01,55,13.70
2009,08,11,01,56,13.70
2009,08,11,01,57,13.70
2009,08,11,01,58,13.70
2009,08,11,01,59,13.70
2009,08,11,02,00,13.70
2009,08,11,02,01,13.80
2009,08,11,02,02,13.80
2009,08,11,02,03,13.80
2009,08,11,02,04,13.80
2009,08,11,02,05,13.90
2009,08,11,02,06,13.90
2009,08,11,02,07,13.90
2009,08,11,02,08,13.90
2009,08,11,02,09,14.00
2009,08,11,02,10,14.00
2009,08,11,02,11,14.00
2009,08,11,02,12,14.00
2009,08,11,02,13,14.00
2009,08,11,02,14,14.10
2009,08,11,02,15,14.10
2009,08,11,02,16,14.10
2009,08,11,02,17,14.10
2009,08,11,02,18,14.10
2009,08,11,02,19,14.10
2009,08,11,02,20,14.20
2009,08,11,02,21,14.20
2009,08,11,02,22,14.20
2009,08,11,02,23,14.20
2009,08,11,02,24,14.20
2009,08,11,02,25,14.20
2009,08,11,02,26,14.20
2009,08,11,02,27,14.30
2009,08,11,02,28,14.30
2009,08,11,02,29,14.30
2009,08,11,02,30,14.40
2009,08,11,02,31,14.40
2009,08,11,02,32,14.40
2009,08,11,02,33,14.40
2009,08,11,02,34,14.40
2009,08,11,02,35,14.40
2009,08,11,02,36,14.40
2009,08,11,02,37,14.40
2009,08,11,02,38,14.40
2009,08,11,02,39,14.40
2009,08,11,02,40,14.40
2009,08,11,02,41,14.40
2009,08,11,02,42,14.40
2009,08,11,02,43,14.40
2009,08,11,02,44,14.40
2009,08,11,02,45,14.40
2009,08,11,02,46,14.40
2009,08,11,02,47,14.40
2009,08,11,02,48,14.40
2009,08,11,02,49,14.40
2009,08,11,02,50,14.40
2009,08,11,02,51,14.40
2009,08,11,02,52,14.30
2009,08,11,02,53,14.30
2009,08,11,02,54,14.30
2009,08,11,02,55,14.20
2009,08,11,02,56,14.20
2009,08,11,02,57,14.20
2009,08,11,02,58,14.10
2009,08,11,02,59,14.10
2009,08,11,03,00,14.00
2009,08,11,03,01,14.00
2009,08,11,03,02,14.00
2009,08,11,03,03,14.00
2009,08,11,03,04,14.00
2009,08,11,03,05,14.00
2009,08,11,03,06,14.00
2009,08,11,03,07,14.00
2009,08,11,03,08,14.00
2009,08,11,03,09,14.00
2009,08,11,03,10,14.00
2009,08,11,03,11,14.00
2009,08,11,03,12,14.00
2009,08,11,03,13,14.00
2009,08,11,03,14,14.00
2009,08,11,03,15,14.00
2009,08,11,03,16,14.00
2009,08,11,03,17,14.00
2009,08,11,03,18,14.10
2009,08,11,03,19,14.10
2009,08,11,03,20,14.10
2009,08,11,03,21,14.10
2009,08,11,03,22,14.10
2009,08,11,03,23,14.10
2009,08,11,03,24,14.10
2009,08,11,03,25,14.10
2009,08,11,03,26,14.10
2009,08,11,03,27,14.10
2009,08,11,03,28,14.10
2009,08,11,03,29,14.10
2009,08,11,03,30,14.10
2009,08,11,03,31,14.10
2009,08,11,03,32,14.00
2009,08,11,03,33,14.00
2009,08,11,03,34,14.00
2009,08,11,03,35,14.00
2009,08,11,03,36,14.00
2009,08,11,03,37,14.00
2009,08,11,03,38,14.00
2009,08,11,03,39,14.00
2009,08,11,03,40,14.00
2009,08,11,03,41,13.90
2009,08,11,03,42,13.90
2009,08,11,03,43,13.90
2009,08,11,03,44,13.90
2009,08,11,03,45,13.90
2009,08,11,03,46,13.90
2009,08,11,03,47,13.80
2009,08,11,03,48,13.80
2009,08,11,03,49,13.80
2009,08,11,03,50,13.80
2009,08,11,03,51,13.80
2009,08,11,03,52,13.80
2009,08,11,03,53,13.70
2009,08,11,03,54,13.70
2009,08,11,03,55,13.70
2009,08,11,03,56,13.70
2009,08,11,03,57,13.80
2009,08,11,03,58,13.80
2009,08,11,03,59,13.80
2009,08,11,04,00,13.80
2009,08,11,04,01,13.80
2009,08,11,04,02,13.80
2009,08,11,04,03,13.80
2009,08,11,04,04,13.80
2009,08,11,04,05,13.80
2009,08,11,04,06,13.80
2009,08,11,04,07,13.80
2009,08,11,04,08,13.80
2009,08,11,04,09,13.70
2009,08,11,04,10,13.70
2009,08,11,04,11,13.70
2009,08,11,04,12,13.70
2009,08,11,04,13,13.70
2009,08,11,04,14,13.70
2009,08,11,04,15,13.70
2009,08,11,04,16,13.70
2009,08,11,04,17,13.70
2009,08,11,04,18,13.70
2009,08,11,04,19,13.70
2009,08,11,04,20,13.70
2009,08,11,04,21,13.60
2009,08,11,04,22,13.60
2009,08,11,04,23,13.60
2009,08,11,04,24,13.50
2009,08,11,04,25,13.50
2009,08,11,04,26,13.50
2009,08,11,04,27,13.50
2009,08,11,04,28,13.50
2009,08,11,04,29,13.50
2009,08,11,04,30,13.50
2009,08,11,04,31,13.50
2009,08,11,04,32,13.40
2009,08,11,04,33,13.40
2009,08,11,04,34,13.40
2009,08,11,04,35,13.40
2009,08,11,04,36,13.40
2009,08,11,04,37,13.40
2009,08,11,04,38,13.40
2009,08,11,04,39,13.40
2009,08,11,04,40,13.40
2009,08,11,04,41,13.40
2009,08,11,04,42,13.40
2009,08,11,04,43,13.30
2009,08,11,04,44,13.30
2009,08,11,04,45,13.30
2009,08,11,04,46,13.30
2009,08,11,04,47,13.30
2009,08,11,04,48,13.30
2009,08,11,04,49,13.30
2009,08,11,04,50,13.30
2009,08,11,04,51,13.30
2009,08,11,04,52,13.30
2009,08,11,04,53,13.30
2009,08,11,04,54,13.30
2009,08,11,04,55,13.30
2009,08,11,04,56,13.30
2009,08,11,04,57,13.30
2009,08,11,04,58,13.30
2009,08,11,04,59,13.30
2009,08,11,05,00,13.30
2009,08,11,05,01,13.30
2009,08,11,05,02,13.30
2009,08,11,05,03,13.30
2009,08,11,05,04,13.30
2009,08,11,05,05,13.30
2009,08,11,05,06,13.30
2009,08,11,05,07,13.30
2009,08,11,05,08,13.30
2009,08,11,05,09,13.20
2009,08,11,05,10,13.10
2009,08,11,05,11,13.00
2009,08,11,05,12,12.90
2009,08,11,05,13,12.80
2009,08,11,05,14,12.70
2009,08,11,05,15,12.60
2009,08,11,05,16,12.50
2009,08,11,05,17,12.50
2009,08,11,05,18,12.40
2009,08,11,05,19,12.40
2009,08,11,05,20,12.40
2009,08,11,05,21,12.30
2009,08,11,05,22,12.30
2009,08,11,05,23,12.30
2009,08,11,05,24,12.30
2009,08,11,05,25,12.30
2009,08,11,05,26,12.20
2009,08,11,05,27,12.20
2009,08,11,05,28,12.20
2009,08,11,05,29,12.20
2009,08,11,05,30,12.10
2009,08,11,05,31,12.10
2009,08,11,05,32,12.10
2009,08,11,05,33,12.10
2009,08,11,05,34,12.10
2009,08,11,05,35,12.10
2009,08,11,05,36,12.10
2009,08,11,05,37,12.10
2009,08,11,05,38,12.10
2009,08,11,05,39,12.10
2009,08,11,05,40,12.10
2009,08,11,05,41,12.10
2009,08,11,05,42,12.10
2009,08,11,05,43,12.00
2009,08,11,05,44,12.00
2009,08,11,05,45,12.10
2009,08,11,05,46,12.10
2009,08,11,05,47,12.10
2009,08,11,05,48,12.10
2009,08,11,05,49,12.10
2009,08,11,05,50,12.00
2009,08,11,05,51,12.00
2009,08,11,05,52,12.00
2009,08,11,05,53,12.00
2009,08,11,05,54,11.90
2009,08,11,05,55,11.90
2009,08,11,05,56,11.90
2009,08,11,05,57,11.80
2009,08,11,05,58,11.80
2009,08,11,05,59,11.80
2009,08,11,06,00,11.80
2009,08,11,06,01,11.80
2009,08,11,06,02,11.80
2009,08,11,06,03,11.80
2009,08,11,06,04,11.80
2009,08,11,06,05,11.80
2009,08,11,06,06,11.80
2009,08,11,06,07,11.80
2009,08,11,06,08,11.80
2009,08,11,06,09,11.80
2009,08,11,06,10,11.80
2009,08,11,06,11,11.80
2009,08,11,06,12,11.80
2009,08,11,06,13,11.80
2009,08,11,06,14,11.80
2009,08,11,06,15,11.80
2009,08,11,06,16,11.90
2009,08,11,06,17,11.90
2009,08,11,06,18,11.90
2009,08,11,06,19,11.90
2009,08,11,06,20,11.90
2009,08,11,06,21,11.90
2009,08,11,06,22,12.00
2009,08,11,06,23,12.00
2009,08,11,06,24,11.90
2009,08,11,06,25,11.90
2009,08,11,06,26,11.90
2009,08,11,06,27,12.00
2009,08,11,06,28,12.00
2009,08,11,06,29,12.00
2009,08,11,06,30,12.00
2009,08,11,06,31,12.00
2009,08,11,06,32,12.00
2009,08,11,06,33,12.10
2009,08,11,06,34,12.10
2009,08,11,06,35,12.10
2009,08,11,06,36,12.10
2009,08,11,06,37,12.20
2009,08,11,06,38,12.20
2009,08,11,06,39,12.20
2009,08,11,06,40,12.20
2009,08,11,06,41,12.20
2009,08,11,06,42,12.20
2009,08,11,06,43,12.30
2009,08,11,06,44,12.30
2009,08,11,06,45,12.30
2009,08,11,06,46,12.30
2009,08,11,06,47,12.30
2009,08,11,06,48,12.30
2009,08,11,06,49,12.30
2009,08,11,06,50,12.30
2009,08,11,06,51,12.30
2009,08,11,06,52,12.30
2009,08,11,06,53,12.30
2009,08,11,06,54,12.30
2009,08,11,06,55,12.30
2009,08,11,06,56,12.30
2009,08,11,06,57,12.20
2009,08,11,06,58,12.20
2009,08,11,06,59,12.10
2009,08,11,07,00,12.10
2009,08,11,07,01,12.00
2009,08,11,07,02,12.00
2009,08,11,07,03,12.00
2009,08,11,07,04,11.90
2009,08,11,07,05,11.90
2009,08,11,07,06,11.80
2009,08,11,07,07,11.80
2009,08,11,07,08,11.80
2009,08,11,07,09,11.90
2009,08,11,07,10,11.90
2009,08,11,07,11,11.90
2009,08,11,07,12,11.90
2009,08,11,07,13,11.90
2009,08,11,07,14,11.90
2009,08,11,07,15,11.80
2009,08,11,07,16,11.80
2009,08,11,07,17,11.80
2009,08,11,07,18,11.70
2009,08,11,07,19,11.70
2009,08,11,07,20,11.60
2009,08,11,07,21,11.60
2009,08,11,07,22,11.60
2009,08,11,07,23,11.60
2009,08,11,07,24,11.60
2009,08,11,07,25,11.60
2009,08,11,07,26,11.60
2009,08,11,07,27,11.60
2009,08,11,07,28,11.60
2009,08,11,07,29,11.50
2009,08,11,07,30,11.40
2009,08,11,07,31,11.40
2009,08,11,07,32,11.40
2009,08,11,07,33,11.40
2009,08,11,07,34,11.30
2009,08,11,07,35,11.20
2009,08,11,07,36,11.20
2009,08,11,07,37,11.10
2009,08,11,07,38,11.10
2009,08,11,07,39,11.10
2009,08,11,07,40,11.10
2009,08,11,07,41,11.10
2009,08,11,07,42,11.10
2009,08,11,07,43,11.10
2009,08,11,07,44,11.10
2009,08,11,07,45,11.10
2009,08,11,07,46,11.10
2009,08,11,07,47,11.20
2009,08,11,07,48,11.20
2009,08,11,07,49,11.20
2009,08,11,07,50,11.20
2009,08,11,07,51,11.20
2009,08,11,07,52,11.30
2009,08,11,07,53,11.40
2009,08,11,07,54,11.40
2009,08,11,07,55,11.50
2009,08,11,07,56,11.60
2009,08,11,07,57,11.60
2009,08,11,07,58,11.80
2009,08,11,07,59,11.80
2009,08,11,08,00,11.90
2009,08,11,08,01,11.90
2009,08,11,08,02,11.90
2009,08,11,08,03,11.90
2009,08,11,08,04,11.90
2009,08,11,08,05,11.90
2009,08,11,08,06,11.90
2009,08,11,08,07,11.90
2009,08,11,08,08,11.90
2009,08,11,08,09,11.80
2009,08,11,08,10,11.80
2009,08,11,08,11,11.80
2009,08,11,08,12,11.70
2009,08,11,08,13,11.70
2009,08,11,08,14,11.70
2009,08,11,08,15,11.80
2009,08,11,08,16,11.80
2009,08,11,08,17,11.80
2009,08,11,08,18,11.80
2009,08,11,08,19,11.80
2009,08,11,08,20,11.80
2009,08,11,08,21,11.80
2009,08,11,08,22,11.80
2009,08,11,08,23,11.80
2009,08,11,08,24,11.80
2009,08,11,08,25,11.80
2009,08,11,08,26,11.90
2009,08,11,08,27,11.90
2009,08,11,08,28,12.00
2009,08,11,08,29,12.00
2009,08,11,08,30,11.90
2009,08,11,08,31,11.90
2009,08,11,08,32,11.90
2009,08,11,08,33,11.90
2009,08,11,08,34,11.90
2009,08,11,08,35,11.80
2009,08,11,08,36,11.80
2009,08,11,08,37,11.90
2009,08,11,08,38,11.90
2009,08,11,08,39,11.90
2009,08,11,08,40,12.00
2009,08,11,08,41,12.10
2009,08,11,08,42,12.10
2009,08,11,08,43,12.20
2009,08,11,08,44,12.30
2009,08,11,08,45,12.20
2009,08,11,08,46,12.20
2009,08,11,08,47,12.20
2009,08,11,08,48,12.30
2009,08,11,08,49,12.30
2009,08,11,08,50,12.30
2009,08,11,08,51,12.30
2009,08,11,08,52,12.30
2009,08,11,08,53,12.20
2009,08,11,08,54,12.20
2009,08,11,08,55,12.10
2009,08,11,08,56,12.10
2009,08,11,08,57,12.10
2009,08,11,08,58,12.10
2009,08,11,08,59,12.10
2009,08,11,09,00,12.20
2009,08,11,09,01,12.20
2009,08,11,09,02,12.20
2009,08,11,09,03,12.20
2009,08,11,09,04,12.20
2009,08,11,09,05,12.10
2009,08,11,09,06,12.10
2009,08,11,09,07,12.10
2009,08,11,09,08,12.20
2009,08,11,09,09,12.10
2009,08,11,09,10,12.00
2009,08,11,09,11,11.80
2009,08,11,09,12,11.80
2009,08,11,09,13,11.80
2009,08,11,09,14,11.90
2009,08,11,09,15,11.90
2009,08,11,09,16,11.90
2009,08,11,09,17,11.90
2009,08,11,09,18,11.90
2009,08,11,09,19,12.00
2009,08,11,09,20,12.00
2009,08,11,09,21,12.00
2009,08,11,09,22,11.90
2009,08,11,09,23,11.90
2009,08,11,09,24,12.00
2009,08,11,09,25,12.10
2009,08,11,09,26,12.10
2009,08,11,09,27,12.20
2009,08,11,09,28,12.20
2009,08,11,09,29,12.20
2009,08,11,09,30,12.10
2009,08,11,09,31,12.10
2009,08,11,09,32,12.20
2009,08,11,09,33,12.20
2009,08,11,09,34,12.20
2009,08,11,09,35,12.30
2009,08,11,09,36,12.30
2009,08,11,09,37,12.20
2009,08,11,09,38,12.10
2009,08,11,09,39,12.00
2009,08,11,09,40,12.00
2009,08,11,09,41,12.00
2009,08,11,09,42,12.00
2009,08,11,09,43,12.10
2009,08,11,09,44,12.00
2009,08,11,09,45,11.80
2009,08,11,09,46,11.80
2009,08,11,09,47,11.80
2009,08,11,09,48,11.90
2009,08,11,09,49,11.90
2009,08,11,09,50,11.80
2009,08,11,09,51,11.80
2009,08,11,09,52,11.80
2009,08,11,09,53,11.80
2009,08,11,09,54,11.80
2009,08,11,09,55,11.80
2009,08,11,09,56,11.80
2009,08,11,09,57,11.80
2009,08,11,09,58,11.70
2009,08,11,09,59,11.60
2009,08,11,10,00,11.60
2009,08,11,10,01,11.60
2009,08,11,10,02,11.60
2009,08,11,10,03,11.60
2009,08,11,10,04,11.60
2009,08,11,10,05,11.60
2009,08,11,10,06,11.60
2009,08,11,10,07,11.70
2009,08,11,10,08,11.80
2009,08,11,10,09,11.80
2009,08,11,10,10,11.80
2009,08,11,10,11,11.80
2009,08,11,10,12,11.80
2009,08,11,10,13,11.80
2009,08,11,10,14,11.80
2009,08,11,10,15,11.80
2009,08,11,10,16,11.80
2009,08,11,10,17,11.90
2009,08,11,10,18,12.00
2009,08,11,10,19,12.00
2009,08,11,10,20,12.00
2009,08,11,10,21,12.00
2009,08,11,10,22,11.90
2009,08,11,10,23,11.90
2009,08,11,10,24,11.80
2009,08,11,10,25,11.90
2009,08,11,10,26,11.90
2009,08,11,10,27,12.00
2009,08,11,10,28,12.10
2009,08,11,10,29,12.20
2009,08,11,10,30,12.30
2009,08,11,10,31,12.40
2009,08,11,10,32,12.50
2009,08,11,10,33,12.50
2009,08,11,10,34,12.60
2009,08,11,10,35,12.70
2009,08,11,10,36,12.80
2009,08,11,10,37,12.90
2009,08,11,10,38,12.90
2009,08,11,10,39,12.90
2009,08,11,10,40,12.90
2009,08,11,10,41,12.90
2009,08,11,10,42,12.90
2009,08,11,10,43,12.90
2009,08,11,10,44,12.80
2009,08,11,10,45,12.80
2009,08,11,10,46,12.80
2009,08,11,10,47,12.90
2009,08,11,10,48,12.90
2009,08,11,10,49,12.80
2009,08,11,10,50,12.80
2009,08,11,10,51,12.90
2009,08,11,10,52,13.00
2009,08,11,10,53,13.00
2009,08,11,10,54,13.10
2009,08,11,10,55,13.10
2009,08,11,10,56,13.10
2009,08,11,10,57,13.00
2009,08,11,10,58,12.90
2009,08,11,10,59,12.80
2009,08,11,11,00,12.80
2009,08,11,11,01,12.70
2009,08,11,11,02,12.70
2009,08,11,11,03,12.70
2009,08,11,11,04,12.80
2009,08,11,11,05,12.80
2009,08,11,11,06,12.80
2009,08,11,11,07,12.80
2009,08,11,11,08,12.90
2009,08,11,11,09,13.00
2009,08,11,11,10,13.00
2009,08,11,11,11,13.10
2009,08,11,11,12,13.10
2009,08,11,11,13,13.10
2009,08,11,11,14,13.10
2009,08,11,11,15,13.20
2009,08,11,11,16,13.20
2009,08,11,11,17,13.30
2009,08,11,11,18,13.30
2009,08,11,11,19,13.30
2009,08,11,11,20,13.30
2009,08,11,11,21,13.30
2009,08,11,11,22,13.30
2009,08,11,11,23,13.30
2009,08,11,11,24,13.40
2009,08,11,11,25,13.40
2009,08,11,11,26,13.50
2009,08,11,11,27,13.50
2009,08,11,11,28,13.70
2009,08,11,11,29,13.80
2009,08,11,11,30,13.90
2009,08,11,11,31,13.80
2009,08,11,11,32,13.80
2009,08,11,11,33,13.80
2009,08,11,11,34,13.90
2009,08,11,11,35,13.90
2009,08,11,11,36,13.90
2009,08,11,11,37,14.00
2009,08,11,11,38,14.00
2009,08,11,11,39,14.00
2009,08,11,11,40,14.00
2009,08,11,11,41,14.00
2009,08,11,11,42,13.90
2009,08,11,11,43,13.90
2009,08,11,11,44,14.00
2009,08,11,11,45,14.10
2009,08,11,11,46,14.10
2009,08,11,11,47,14.00
2009,08,11,11,48,14.00
2009,08,11,11,49,14.00
2009,08,11,11,50,14.20
2009,08,11,11,51,14.20
2009,08,11,11,52,14.40
2009,08,11,11,53,14.50
2009,08,11,11,54,14.60
2009,08,11,11,55,14.60
2009,08,11,11,56,14.80
2009,08,11,11,57,14.80
2009,08,11,11,58,14.80
2009,08,11,11,59,14.80
2009,08,11,12,00,14.80
2009,08,11,12,01,14.70
2009,08,11,12,02,14.70
2009,08,11,12,03,14.70
2009,08,11,12,04,14.80
2009,08,11,12,05,14.80
2009,08,11,12,06,14.80
2009,08,11,12,07,14.80
2009,08,11,12,08,14.80
2009,08,11,12,09,14.90
2009,08,11,12,10,15.00
2009,08,11,12,11,15.00
2009,08,11,12,12,15.00
2009,08,11,12,13,14.90
2009,08,11,12,14,14.90
2009,08,11,12,15,14.90
2009,08,11,12,16,14.90
2009,08,11,12,17,15.00
2009,08,11,12,18,15.00
2009,08,11,12,19,15.10
2009,08,11,12,20,15.10
2009,08,11,12,21,15.20
2009,08,11,12,22,15.20
2009,08,11,12,23,15.30
2009,08,11,12,24,15.30
2009,08,11,12,25,15.30
2009,08,11,12,26,15.30
2009,08,11,12,27,15.40
2009,08,11,12,28,15.30
2009,08,11,12,29,15.30
2009,08,11,12,30,15.30
2009,08,11,12,31,15.30
2009,08,11,12,32,15.20
2009,08,11,12,33,15.20
2009,08,11,12,34,15.10
2009,08,11,12,35,15.10
2009,08,11,12,36,15.00
2009,08,11,12,37,15.00
2009,08,11,12,38,15.00
2009,08,11,12,39,15.10
2009,08,11,12,40,15.10
2009,08,11,12,41,15.20
2009,08,11,12,42,15.20
2009,08,11,12,43,15.20
2009,08,11,12,44,15.20
2009,08,11,12,45,15.20
2009,08,11,12,46,15.30
2009,08,11,12,47,15.50
2009,08,11,12,48,15.60
2009,08,11,12,49,15.60
2009,08,11,12,50,15.60
2009,08,11,12,51,15.60
2009,08,11,12,52,15.70
2009,08,11,12,53,15.60
2009,08,11,12,54,15.60
2009,08,11,12,55,15.60
2009,08,11,12,56,15.60
2009,08,11,12,57,15.60
2009,08,11,12,58,15.60
2009,08,11,12,59,15.60
2009,08,11,13,00,15.70
2009,08,11,13,01,15.70
2009,08,11,13,02,15.80
2009,08,11,13,03,15.70
2009,08,11,13,04,15.70
2009,08,11,13,05,15.70
2009,08,11,13,06,15.70
2009,08,11,13,07,15.70
2009,08,11,13,08,15.80
2009,08,11,13,09,15.80
2009,08,11,13,10,15.80
2009,08,11,13,11,15.80
2009,08,11,13,12,15.80
2009,08,11,13,13,15.80
2009,08,11,13,14,15.80
2009,08,11,13,15,15.80
2009,08,11,13,16,15.80
2009,08,11,13,17,15.80
2009,08,11,13,18,15.80
2009,08,11,13,19,15.80
2009,08,11,13,20,15.90
2009,08,11,13,21,16.10
2009,08,11,13,22,16.10
2009,08,11,13,23,16.00
2009,08,11,13,24,16.00
2009,08,11,13,25,16.00
2009,08,11,13,26,15.90
2009,08,11,13,27,15.80
2009,08,11,13,28,15.80
2009,08,11,13,29,15.80
2009,08,11,13,30,15.80
2009,08,11,13,31,15.80
2009,08,11,13,32,15.70
2009,08,11,13,33,15.80
2009,08,11,13,34,15.70
2009,08,11,13,35,15.70
2009,08,11,13,36,15.70
2009,08,11,13,37,15.70
2009,08,11,13,38,15.80
2009,08,11,13,39,15.80
2009,08,11,13,40,15.90
2009,08,11,13,41,16.10
2009,08,11,13,42,16.10
2009,08,11,13,43,16.10
2009,08,11,13,44,16.20
2009,08,11,13,45,16.20
2009,08,11,13,46,16.30
2009,08,11,13,47,16.40
2009,08,11,13,48,16.50
2009,08,11,13,49,16.40
2009,08,11,13,50,16.40
2009,08,11,13,51,16.40
2009,08,11,13,52,16.30
2009,08,11,13,53,16.30
2009,08,11,13,54,16.30
2009,08,11,13,55,16.40
2009,08,11,13,56,16.40
2009,08,11,13,57,16.40
2009,08,11,13,58,16.40
2009,08,11,13,59,16.40
2009,08,11,14,00,16.40
2009,08,11,14,01,16.40
2009,08,11,14,02,16.40
2009,08,11,14,03,16.40
2009,08,11,14,04,16.50
2009,08,11,14,05,16.60
2009,08,11,14,06,16.60
2009,08,11,14,07,16.60
2009,08,11,14,08,16.60
2009,08,11,14,09,16.60
2009,08,11,14,10,16.50
2009,08,11,14,11,16.40
2009,08,11,14,12,16.30
2009,08,11,14,13,16.20
2009,08,11,14,14,16.20
2009,08,11,14,15,16.30
2009,08,11,14,16,16.20
2009,08,11,14,17,16.20
2009,08,11,14,18,16.40
2009,08,11,14,19,16.40
2009,08,11,14,20,16.60
2009,08,11,14,21,16.70
2009,08,11,14,22,16.70
2009,08,11,14,23,16.70
2009,08,11,14,24,16.70
2009,08,11,14,25,16.60
2009,08,11,14,26,16.40
2009,08,11,14,27,16.30
2009,08,11,14,28,16.20
2009,08,11,14,29,16.10
2009,08,11,14,30,16.10
2009,08,11,14,31,16.00
2009,08,11,14,32,15.90
2009,08,11,14,33,15.90
2009,08,11,14,34,15.90
2009,08,11,14,35,15.90
2009,08,11,14,36,15.80
2009,08,11,14,37,15.80
2009,08,11,14,38,15.80
2009,08,11,14,39,15.80
2009,08,11,14,40,15.80
2009,08,11,14,41,15.90
2009,08,11,14,42,15.90
2009,08,11,14,43,16.00
2009,08,11,14,44,16.10
2009,08,11,14,45,16.20
2009,08,11,14,46,16.20
2009,08,11,14,47,16.30
2009,08,11,14,48,16.30
2009,08,11,14,49,16.20
2009,08,11,14,50,16.20
2009,08,11,14,51,16.20
2009,08,11,14,52,16.20
2009,08,11,14,53,16.10
2009,08,11,14,54,16.10
2009,08,11,14,55,16.10
2009,08,11,14,56,16.20
2009,08,11,14,57,16.20
2009,08,11,14,58,16.30
2009,08,11,14,59,16.40
2009,08,11,15,00,16.60
2009,08,11,15,01,16.70
2009,08,11,15,02,16.70
2009,08,11,15,03,16.70
2009,08,11,15,04,16.80
2009,08,11,15,05,16.80
2009,08,11,15,06,16.90
2009,08,11,15,07,16.90
2009,08,11,15,08,17.00
2009,08,11,15,09,17.00
2009,08,11,15,10,16.90
2009,08,11,15,11,16.90
2009,08,11,15,12,16.90
2009,08,11,15,13,17.00
2009,08,11,15,14,17.00
2009,08,11,15,15,17.10
2009,08,11,15,16,17.10
2009,08,11,15,17,17.10
2009,08,11,15,18,17.00
2009,08,11,15,19,17.00
2009,08,11,15,20,17.20
2009,08,11,15,21,17.30
2009,08,11,15,22,17.30
2009,08,11,15,23,17.30
2009,08,11,15,24,17.50
2009,08,11,15,25,17.60
2009,08,11,15,26,17.60
2009,08,11,15,27,17.60
2009,08,11,15,28,17.60
2009,08,11,15,29,17.50
2009,08,11,15,30,17.40
2009,08,11,15,31,17.40
2009,08,11,15,32,17.30
2009,08,11,15,33,17.30
2009,08,11,15,34,17.30
2009,08,11,15,35,17.30
2009,08,11,15,36,17.30
2009,08,11,15,37,17.30
2009,08,11,15,38,17.30
2009,08,11,15,39,17.40
2009,08,11,15,40,17.40
2009,08,11,15,41,17.40
2009,08,11,15,42,17.30
2009,08,11,15,43,17.20
2009,08,11,15,44,17.10
2009,08,11,15,45,17.00
2009,08,11,15,46,16.90
2009,08,11,15,47,16.90
2009,08,11,15,48,16.90
2009,08,11,15,49,16.90
2009,08,11,15,50,16.90
2009,08,11,15,51,16.80
2009,08,11,15,52,16.80
2009,08,11,15,53,16.70
2009,08,11,15,54,16.70
2009,08,11,15,55,16.70
2009,08,11,15,56,16.80
2009,08,11,15,57,16.80
2009,08,11,15,58,16.90
2009,08,11,15,59,16.90
2009,08,11,16,00,17.00
2009,08,11,16,01,17.10
2009,08,11,16,02,17.20
2009,08,11,16,03,17.30
2009,08,11,16,04,17.30
2009,08,11,16,05,17.40
2009,08,11,16,06,17.40
2009,08,11,16,07,17.40
2009,08,11,16,08,17.40
2009,08,11,16,09,17.40
2009,08,11,16,10,17.40
2009,08,11,16,11,17.50
2009,08,11,16,12,17.40
2009,08,11,16,13,17.30
2009,08,11,16,14,17.30
2009,08,11,16,15,17.40
2009,08,11,16,16,17.40
2009,08,11,16,17,17.50
2009,08,11,16,18,17.50
2009,08,11,16,19,17.50
2009,08,11,16,20,17.50
2009,08,11,16,21,17.50
2009,08,11,16,22,17.50
2009,08,11,16,23,17.50
2009,08,11,16,24,17.50
2009,08,11,16,25,17.40
2009,08,11,16,26,17.40
2009,08,11,16,27,17.30
2009,08,11,16,28,17.30
2009,08,11,16,29,17.30
2009,08,11,16,30,17.30
2009,08,11,16,31,17.30
2009,08,11,16,32,17.20
2009,08,11,16,33,17.20
2009,08,11,16,34,17.30
2009,08,11,16,35,17.30
2009,08,11,16,36,17.30
2009,08,11,16,37,17.30
2009,08,11,16,38,17.40
2009,08,11,16,39,17.40
2009,08,11,16,40,17.30
2009,08,11,16,41,17.20
2009,08,11,16,42,17.20
2009,08,11,16,43,17.20
2009,08,11,16,44,17.20
2009,08,11,16,45,17.30
2009,08,11,16,46,17.30
2009,08,11,16,47,17.40
2009,08,11,16,48,17.40
2009,08,11,16,49,17.40
2009,08,11,16,50,17.40
2009,08,11,16,51,17.40
2009,08,11,16,52,17.30
2009,08,11,16,53,17.30
2009,08,11,16,54,17.30
2009,08,11,16,55,17.30
2009,08,11,16,56,17.40
2009,08,11,16,57,17.40
2009,08,11,16,58,17.40
2009,08,11,16,59,17.50
2009,08,11,17,00,17.50
2009,08,11,17,01,17.50
2009,08,11,17,02,17.50
2009,08,11,17,03,17.50
2009,08,11,17,04,17.30
2009,08,11,17,05,17.20
2009,08,11,17,06,17.20
2009,08,11,17,07,17.10
2009,08,11,17,08,17.20
2009,08,11,17,09,17.30
2009,08,11,17,10,17.30
2009,08,11,17,11,17.30
2009,08,11,17,12,17.30
2009,08,11,17,13,17.30
2009,08,11,17,14,17.30
2009,08,11,17,15,17.30
2009,08,11,17,16,17.30
2009,08,11,17,17,17.20
2009,08,11,17,18,17.10
2009,08,11,17,19,17.00